Location: Newark
(47.5833°N, 8.1500°E)
Time: 14:25:55
(UTC+00:00)

Tiros 1 - Pass Details

Date: 30 October 2020
Orbit: 630 x 664 km, 48.4° (Epoch: 29 November)

Event Time Altitude Azimuth Distance (km) Brightness Sun altitude
Exits shadow 05:01:54 17° 274° (W) 1,603 8.5 -11.8°
Maximum altitude 05:05:27 80° 360° (N) 645 7.1 -11.2°
Drops below altitude 10° 05:10:05 10° 88° (E) 2,009 11.2 -10.4°
Sets 05:12:25 0° 90° (E) 2,919 12.5 -10.0°
